Regional Weather Roundup
Issued by NWS

Home | Current Version | Previous Version | Graphics & Text | Print | Product List | Glossary Off
Versions: 1 2 3 4 5 6 7 8 9 10 11 12 13 14 15 16 17 18 19 20 21 22 23 24 25 26 27 28 29 30 31 32 33 34 35 36 37 38 39 40 41 42 43 44 45 46 47 48 49 50

000
ASUS43 KTOP 302008
RWRKS

WEATHER ROUNDUP FOR KANSAS
NATIONAL WEATHER SERVICE GOODLAND KS
300 PM CDT MON MAY 30 2016

NOTE:  "FAIR" INDICATES FEW OR NO CLOUDS BELOW 12,000 FEET WITH NO
SIGNIFICANT WEATHER AND/OR OBSTRUCTIONS TO VISIBILITY.

KSZ001>006-013>018-027>032-041>047-302100-
NORTHWEST KANSAS

CITY           SKY/WX    TMP DP  RH WIND       PRES   REMARKS
GOODLAND       SUNNY     80  55  42 S22G33    29.91F
HAYS           SUNNY     82  55  39 S15G23    29.93F
HILL CITY      SUNNY     85  54  34 S15G24    29.92F
RUSSELL        SUNNY     81  61  50 S16       29.93F
$$

KSZ061>065-074>080-084>089-302100-
SOUTHWEST KANSAS

CITY           SKY/WX    TMP DP  RH WIND       PRES   REMARKS
DODGE CITY     SUNNY     80  54  40 S14G23    29.95F
ELKHART          N/A     83  56  39 S16         N/A
GARDEN CITY    SUNNY     83  49  30 S17G25    29.93F
GREAT BEND     SUNNY     82  57  42 S20       29.94F
LIBERAL        SUNNY     82  54  36 S17       29.97F
PRATT          SUNNY     77  56  48 S14G20    29.96F
$$

KSZ066>073-081>083-090>101-302100-
SOUTHEAST KANSAS

CITY           SKY/WX    TMP DP  RH WIND       PRES   REMARKS
CHANUTE        CLOUDY    75  64  68 S7        30.02F
COFFEYVILLE    CLOUDY    75  67  76 SE12      30.02F
HUTCHINSON     SUNNY     84  59  42 S13       29.95F
MEDICINE LODGE   N/A     83  55  38 S10G21    29.94F
NEWTON         SUNNY     82  61  47 S10G21    29.99
PARSONS        CLOUDY    74  65  73 CALM      30.03F
WICHITA INTL   MOSUNNY   82  60  47 S9        29.96F
WICHITA JABRA  SUNNY     81  63  54 S9        29.97F
WICHITA MCCONL SUNNY     81  59  47 SW9       29.97F
WINFIELD       SUNNY     80  60  50 SE17      29.98F
$$

KSZ007>012-019>026-033>040-048>060-102>105-302100-
NORTHEAST KANSAS

CITY           SKY/WX    TMP DP  RH WIND       PRES   REMARKS
CONCORDIA      SUNNY     81  58  45 S15       29.95F
EMPORIA        CLOUDY    81  61  50 S12G23    29.99S
LAWRENCE       MOSUNNY   81  65  58 SE17      29.98S
MANHATTAN      SUNNY     85  61  44 SW13      29.94F
MARYSVILLE     PTSUNNY   84  68  58 SW8       29.94F
OLATHE IND     CLOUDY    75  64  68 E6        30.02F
OLATHE EXE     LGT RAIN  69  64  84 SE15      30.03S
SALINA         SUNNY     84  61  45 S15       29.95F
TOPEKA BILLARD MOSUNNY   83  64  52 S15       29.96F
TOPEKA FORBES  SUNNY     85  63  47 SW15G21   29.97F
$$




USA.gov is the U.S. government's official web portal to all federal, state and local government web resources and services.